Location: *
(39.6167°S, 171.5333°W)
Time: 20:07:18
(UTC+00:00)

Nadezhda 4 Rocket - Pass Details

Date: 13 May 2021
Orbit: 948 x 993 km, 82.9° (Epoch: 20 June)

Event Time Altitude Azimuth Distance (km) Brightness Sun altitude
Rises 16:17:21 0° 190° (S) 3,712 6.9 -24.1°
Reaches altitude 10° 16:19:53 10° 191° (S) 2,764 6.2 -23.6°
Maximum altitude 16:26:12 73° 274° (W) 1,039 3.9 -22.4°
Drops below altitude 10° 16:32:30 10° 357° (N) 2,753 6.4 -21.2°
Sets 16:35:01 0° 359° (N) 3,696 7.1 -20.7°
